User: anonymous   Login
Location: Unspecified
(0.0000°N, 0.0000°E)
Time: 23:41:53
(UTC+00:00)
Language:

Aussat K1 - Orbit

View from above orbital plane
View from above orbital plane
View from above satellite
View from above satellite

Ground track
Ground track

The orbit data is extracted from the following two-line orbital elements,

1 15993U 85076B   19047.56287356 -.00000022 +00000-0 +00000-0 0  9991
2 15993 015.2388 001.0146 0008653 322.8218 038.9288 00.99766297092886
Epoch (UTC): 16 February 2019 13:30:32
Eccentricity: 0.0008653
inclination: 15.2388°
perigee height: 35892 km
apogee height: 35965 km
right ascension of ascending node: 1.0146°
argument of perigee: 322.8218°
revolutions per day: 0.99766297
mean anomaly at epoch: 38.9288°
orbit number at epoch: 9288

The dashed part of the orbit path shows where the satellite is in the earth's shadow,  

DLR